[[{"header":{"parameterUnit":"m.s-1","parameterCategory":1,"la1":30.2991,"la2":30.254,"lo1":-89.0895,"lo2":-89.0444,"dy":0.0017,"dx":0.0017,"nx":28,"ny":28,"refTime":"2024-05-09T03:00:00:Z","depth":0,"parameterNumber":2,"parameterNumberName":"U-component_of_WINDS"},"data":[0,0,0,0,0,0,0,0,0,0,0,0,0,0,0,0,0,0,0,0,0,0,0,0,0,0,0,0,0,0,0,0,0,0,0,0,0,0,0,0,0,0,0,0,0,0,0,0,0,0,0,0,0,0,0,0,0,0,3.5766,3.5768,0,3.5975,3.5977,3.598,3.601,3.6008,3.6006,3.6004,3.6223,3.6231,3.6238,0,0,0,0,0,0,0,0,0,0,0,0,0,3.5399,3.5405,3.5766,3.5768,3.5771,3.5974,3.5977,3.598,3.601,3.6008,3.6005,3.6003,3.6221,3.623,3.6239,0,0,0,0,0,0,0,0,0,0,0,0,0,3.5578,3.5407,3.5765,3.581,3.5816,3.5974,3.5977,3.5981,3.601,3.6008,3.6005,3.6002,3.6218,3.6229,3.624,3.6369,0,0,3.6275,3.628,0,0,0,0,0,0,0,0,3.5568,3.5591,3.5801,3.5807,3.5815,3.5963,3.5928,3.6111,3.6011,3.5937,3.6004,3.6001,3.6139,3.6157,3.6203,3.6379,3.6388,3.6276,3.6283,3.6288,3.6291,0,0,0,0,0,0,0,3.5555,3.5583,3.5849,3.5804,3.5812,3.5822,3.5844,3.5963,3.6052,3.5943,3.5946,3.597,3.6142,3.6192,3.6208,3.6392,3.6276,3.6286,3.6293,3.6297,3.6686,3.669,0,0,0,0,0,0,3.5534,3.5572,3.5842,3.5855,3.5681,3.5831,3.5856,3.5918,3.6051,3.6068,3.5972,3.597,3.6173,3.6195,3.6216,3.6376,3.6288,3.6299,3.6305,3.6683,3.6687,3.6691,0,0,0,0,0,0,3.5526,3.5558,3.5834,3.5714,3.575,3.584,3.591,3.5924,3.5973,3.6073,3.6089,3.6006,3.6172,3.62,3.6331,3.6384,3.6304,3.6314,3.6679,3.6684,3.6689,3.6697,0,0,0,0,0,0,3.5515,3.5555,3.5603,3.5715,3.5756,3.5943,3.5914,3.593,3.5992,3.5992,3.6108,3.6125,3.6172,3.6313,3.6342,3.6399,3.6323,3.6675,3.6681,3.6687,3.6692,3.6702,3.671,0,0,0,0,0,3.5502,3.5598,3.5605,3.5637,3.5818,3.5946,3.597,3.602,3.5996,3.6047,3.6111,3.6121,3.6374,3.6326,3.6359,3.642,3.6671,3.6679,3.6687,3.6689,3.67,3.671,0,0,0,0,0,0,3.549,3.5613,3.5623,3.5757,3.5841,3.595,3.6015,3.6031,3.6124,3.612,3.6181,3.6207,3.6335,3.6391,3.6336,3.6552,3.6521,3.6535,3.6511,3.6523,3.6531,3.6515,3.6333,0,0,0,0,0,3.5503,3.5595,3.5698,3.5806,3.5848,3.5924,3.5982,3.6014,3.6103,3.6139,3.6213,3.6301,3.6401,3.6465,3.6562,3.6701,3.6728,3.6759,3.6768,3.6775,3.6787,3.6866,3.6881,3.6717,3.6716,3.6716,0,0,3.5531,3.5609,3.5664,3.5806,3.5875,3.597,3.5954,3.6055,3.6127,3.6155,3.6283,3.634,3.6443,3.6579,3.6642,3.6629,3.6838,3.6785,3.6789,3.6798,3.6875,3.6891,3.6905,3.6722,3.6721,3.672,0,0,3.563,3.5698,3.5797,3.5866,3.5969,3.602,3.6044,3.6152,3.6191,3.632,3.6343,3.6431,3.66,3.6673,3.6732,3.6861,3.6875,3.6891,3.6937,3.7014,3.7026,3.7038,3.7085,3.7101,3.6903,3.6903,3.6903,0,3.5652,3.5795,3.5846,3.5947,3.6009,3.6038,3.614,3.6205,3.6335,3.6379,3.6362,3.6577,3.6648,3.6801,3.6833,3.688,3.691,3.6878,3.702,3.7033,3.7044,3.709,3.7107,3.6904,3.6904,3.6904,3.6904,0,3.5817,3.5916,3.5984,3.6108,3.6178,3.6279,3.6347,3.6413,3.6439,3.6492,3.6624,3.6711,3.6826,3.6865,3.6892,3.7024,3.7013,3.7007,3.6977,3.7061,3.7104,3.7122,3.6906,3.6906,3.6905,3.6905,0,0,3.5914,3.6065,3.6089,3.6147,3.6264,3.6342,3.6446,3.6557,3.6613,3.6703,3.6792,3.6935,3.6931,3.6999,3.7035,3.7102,3.72,3.7089,3.7092,3.7107,3.7351,3.7354,3.7373,3.721,3.7213,3.7216,3.7343,0,3.6027,3.6209,3.6259,3.6414,3.6507,3.6537,3.6627,3.671,3.6763,3.6851,3.6911,3.7012,3.6998,3.7039,3.7107,3.7173,3.725,3.7165,3.7295,3.7298,3.7267,3.7396,3.7399,3.7515,3.736,3.7363,3.7365,0,3.6183,3.6275,3.6438,3.6545,3.6586,3.6666,3.6773,3.6856,3.6952,3.6986,3.7062,3.7092,3.7203,3.7166,3.7321,3.7262,3.7319,3.7359,3.7365,3.7379,3.7336,3.7414,3.7553,3.757,3.7392,3.739,3.7388,0,3.6237,3.6402,3.6522,3.657,3.6697,3.6753,3.6809,3.6901,3.6966,3.706,3.7103,3.721,3.7268,3.7352,3.7411,3.7379,3.7561,3.7529,3.7594,3.7592,3.763,3.7627,3.778,3.7667,3.7666,3.7666,3.7666,0,3.6358,3.6458,3.6548,3.6621,3.6735,3.6792,3.6903,3.6961,3.7043,3.713,3.7163,3.7245,3.7318,3.741,3.7457,3.7579,3.7605,3.7637,3.7648,3.7634,3.763,3.7671,3.7665,3.7671,3.767,3.7669,3.7668,0,3.6438,3.6502,3.6634,3.6744,3.6774,3.6853,3.6948,3.7022,3.7076,3.7186,3.7215,3.7301,3.7411,3.7478,3.7618,3.765,3.7784,3.7793,3.7751,3.7757,3.7817,3.7811,3.8003,3.8031,3.7898,3.7899,3.79,0,3.651,3.6587,3.6705,3.6765,3.6821,3.6917,3.6983,3.7044,3.7112,3.7227,3.7288,3.7399,3.7492,3.7667,3.7743,3.7851,3.7862,3.7922,3.7879,3.7862,3.7864,3.7858,3.7867,3.7929,3.793,3.7931,3.7932,0,3.6633,3.6661,3.6754,3.6858,3.6936,3.7021,3.7107,3.7154,3.723,3.7305,3.7417,3.7489,3.7631,3.7742,3.7857,3.7917,3.7938,3.7945,3.7966,3.7952,3.7925,3.7941,3.7771,3.794,3.794,3.7939,3.7939,3.7938,3.6711,3.6782,3.6876,3.6979,3.7049,3.7129,3.7204,3.7267,3.7361,3.7481,3.7512,3.763,3.7726,3.7882,3.7944,3.8039,3.803,3.806,3.8068,3.8074,3.8075,3.791,3.806,3.806,3.806,3.806,3.806,0,3.6836,3.6898,3.6992,3.711,3.7192,3.7203,3.7299,3.7367,3.7469,3.7556,3.7647,3.7777,3.7885,3.797,3.8082,3.8142,3.8154,3.8169,3.8165,3.8179,3.8077,3.8047,3.8157,3.8157,3.8157,3.8157,3.8157,3.8157,3.691,3.703,3.7069,3.7226,3.7288,3.7402,3.7456,3.7531,3.76,3.7743,3.7833,3.7887,3.7975,3.8094,3.8194,3.8217,3.8257,3.827,3.8294,3.8197,3.8186,3.8176,3.8149,3.8278,3.8278,3.8389,3.839,3.8391]},{"header":{"parameterUnit":"m.s-1","parameterCategory":1,"la1":30.2991,"la2":30.254,"lo1":-89.0895,"lo2":-89.0444,"dy":0.0017,"dx":0.0017,"nx":28,"ny":28,"refTime":"2024-05-09T03:00:00:Z","depth":0,"parameterNumber":3,"parameterNumberName":"V-component_of_WINDS"},"data":[0,0,0,0,0,0,0,0,0,0,0,0,0,0,0,0,0,0,0,0,0,0,0,0,0,0,0,0,0,0,0,0,0,0,0,0,0,0,0,0,0,0,0,0,0,0,0,0,0,0,0,0,0,0,0,0,0,0,2.071,2.0711,0,2.0868,2.087,2.0872,2.0862,2.086,2.0858,2.0856,2.1022,2.1028,2.1035,0,0,0,0,0,0,0,0,0,0,0,0,0,2.04,2.0406,2.071,2.0712,2.0714,2.0868,2.087,2.0873,2.0863,2.086,2.0857,2.0854,2.102,2.1027,2.1035,0,0,0,0,0,0,0,0,0,0,0,0,0,2.0544,2.0408,2.0709,2.0727,2.073,2.0868,2.087,2.0873,2.0863,2.086,2.0856,2.0853,2.1017,2.1027,2.1036,2.1167,0,0,2.1067,2.1071,0,0,0,0,0,0,0,0,2.0536,2.0556,2.0723,2.0726,2.073,2.0842,2.0822,2.0972,2.0864,2.0813,2.0855,2.0851,2.0965,2.0979,2.1017,2.1175,2.1182,2.1067,2.1073,2.1078,2.1081,0,0,0,0,0,0,0,2.0526,2.0549,2.0773,2.0725,2.073,2.0728,2.0745,2.085,2.0907,2.0817,2.0817,2.0836,2.0966,2.1007,2.102,2.1185,2.1067,2.1076,2.1082,2.1086,2.1457,2.146,0,0,0,0,0,0,2.0512,2.0541,2.0768,2.0777,2.0622,2.0736,2.0755,2.081,2.0906,2.0917,2.0838,2.0835,2.0992,2.1009,2.1026,2.1184,2.1078,2.1087,2.1093,2.1453,2.1457,2.1462,0,0,0,0,0,0,2.0505,2.0532,2.0761,2.0659,2.0688,2.0746,2.0807,2.0815,2.0855,2.0922,2.0932,2.0869,2.099,2.1012,2.1132,2.119,2.1091,2.11,2.1448,2.1454,2.146,2.1502,0,0,0,0,0,0,2.0496,2.053,2.058,2.066,2.0693,2.0863,2.0811,2.082,2.0872,2.0868,2.0953,2.0964,2.0989,2.1117,2.1141,2.1202,2.1108,2.1443,2.1451,2.1458,2.1496,2.1509,2.152,0,0,0,0,0,2.0485,2.0587,2.0582,2.061,2.0757,2.0867,2.0886,2.0911,2.0877,2.0927,2.097,2.0961,2.118,2.1129,2.1157,2.1221,2.144,2.1449,2.1457,2.1491,2.1506,2.152,0,0,0,0,0,0,2.0514,2.0598,2.0594,2.0724,2.0788,2.0865,2.093,2.0927,2.1004,2.0997,2.1026,2.1046,2.1165,2.1205,2.1147,2.1352,2.1305,2.132,2.1321,2.1337,2.1349,2.1336,2.1116,0,0,0,0,0,2.0534,2.0616,2.0685,2.0793,2.0826,2.0872,2.0921,2.0935,2.1003,2.103,2.1081,2.1149,2.1232,2.1287,2.1368,2.1502,2.152,2.1559,2.1571,2.1581,2.1593,2.1666,2.1684,2.1491,2.149,2.149,0,0,2.0579,2.0635,2.0685,2.08,2.0852,2.0936,2.0895,2.0986,2.1049,2.1045,2.1159,2.1199,2.1276,2.1403,2.1462,2.144,2.1651,2.1592,2.1599,2.1607,2.1677,2.1695,2.1711,2.1497,2.1495,2.1494,0,0,2.0704,2.0755,2.0849,2.0901,2.0978,2.1008,2.1031,2.1108,2.1134,2.1249,2.1247,2.1323,2.1467,2.1521,2.1567,2.171,2.1705,2.1736,2.1799,2.1869,2.1885,2.1898,2.1948,2.1966,2.1748,2.1748,2.1748,0,2.075,2.0875,2.0899,2.099,2.104,2.1038,2.1134,2.1184,2.1284,2.132,2.1294,2.1473,2.1525,2.1663,2.1698,2.1736,2.1763,2.1726,2.188,2.1894,2.1907,2.1956,2.1974,2.1751,2.1751,2.1751,2.175,0,2.0928,2.1015,2.1082,2.1177,2.1235,2.1328,2.1366,2.1422,2.1431,2.1463,2.1581,2.1642,2.1735,2.1769,2.1779,2.1909,2.1893,2.1874,2.1827,2.1928,2.1974,2.1993,2.1756,2.1755,2.1754,2.1753,0,0,2.1075,2.118,2.1204,2.1247,2.1331,2.1399,2.1492,2.1581,2.1628,2.1698,2.1776,2.1897,2.1878,2.1931,2.1947,2.2009,2.2117,2.1982,2.1984,2.2004,2.2263,2.2277,2.2298,2.2114,2.2118,2.2121,2.2256,0,2.1207,2.137,2.1393,2.1538,2.1618,2.1617,2.1698,2.1758,2.1791,2.1865,2.1902,2.1986,2.1956,2.1988,2.2049,2.2091,2.2169,2.2081,2.2188,2.2191,2.2168,2.2322,2.2337,2.2462,2.2275,2.2278,2.228,0,2.1383,2.1454,2.1606,2.1679,2.1713,2.1785,2.1868,2.1938,2.2007,2.2026,2.2084,2.2092,2.2189,2.2138,2.2271,2.2211,2.2256,2.2283,2.2288,2.2299,2.2241,2.2336,2.2503,2.2522,2.2308,2.2306,2.2304,0,2.1473,2.1608,2.1716,2.1753,2.184,2.189,2.1929,2.1995,2.2046,2.2119,2.2152,2.2236,2.2281,2.2346,2.2376,2.2337,2.2507,2.2459,2.2526,2.2526,2.2562,2.256,2.2738,2.2592,2.2592,2.2591,2.2591,0,2.1618,2.1711,2.1757,2.1824,2.1928,2.1953,2.2056,2.2093,2.2151,2.2225,2.223,2.23,2.2335,2.241,2.2435,2.2541,2.2562,2.2581,2.2586,2.258,2.2577,2.261,2.2602,2.2596,2.2595,2.2594,2.2593,0,2.1736,2.1771,2.1889,2.1961,2.1981,2.2055,2.2117,2.2182,2.2213,2.2307,2.233,2.2381,2.2469,2.2505,2.2615,2.2631,2.2752,2.2752,2.2729,2.273,2.2795,2.2788,2.3,2.3029,2.2864,2.2865,2.2867,0,2.1826,2.1897,2.1976,2.2025,2.2065,2.2145,2.2196,2.2225,2.2279,2.2362,2.2416,2.2504,2.2576,2.2717,2.2764,2.2847,2.2848,2.2917,2.2861,2.2852,2.2849,2.2844,2.2851,2.2927,2.2929,2.293,2.2931,0,2.1981,2.1994,2.2068,2.2148,2.221,2.2274,2.2338,2.2378,2.2416,2.2476,2.2566,2.2621,2.2732,2.2819,2.2904,2.2945,2.2945,2.2948,2.2968,2.2962,2.2946,2.2955,2.2756,2.2943,2.2942,2.2941,2.294,2.294,2.2087,2.2149,2.2214,2.2297,2.2347,2.2405,2.2469,2.2508,2.2583,2.2674,2.2686,2.2782,2.2848,2.2963,2.3007,2.3083,2.3065,2.3094,2.3102,2.3108,2.3112,2.2934,2.3099,2.3098,2.3098,2.3098,2.3098,0,2.2241,2.2282,2.2358,2.2445,2.251,2.2502,2.2571,2.2626,2.271,2.2771,2.2841,2.2944,2.3028,2.3081,2.3166,2.3217,2.3218,2.3238,2.3235,2.3244,2.3123,2.3097,2.3235,2.3235,2.3235,2.3235,2.3235,2.3235,2.2329,2.2434,2.2455,2.2585,2.2626,2.2719,2.2759,2.2813,2.2862,2.2976,2.3045,2.3079,2.3137,2.3226,2.3303,2.3317,2.3348,2.3368,2.3381,2.3267,2.3252,2.3239,2.3215,2.3375,2.3375,2.3495,2.3496,2.3497]}]]